Terminal Aerodrome Forecast
Issued by NWS Pittsburgh, PA

Current Version | Previous Version | Graphics & Text | Print | Product List | Glossary On
Versions: 1 2 3 4 5 6 7 8 9 10 11 12 13 14 15 16 17 18 19 20 21 22 23 24 25 26 27 28 29 30 31 32 33
727
FTUS41 KPBZ 222023 AAA
TAFPIT
TAF AMD
KPIT 222023Z 2220/2324 23006KT P6SM BKN035
     FM222300 22005KT P6SM BKN025
     FM230300 20003KT P6SM BKN012
     FM230600 20004KT 4SM BR OVC008
     FM231700 23007KT P6SM VCSH BKN012=

USA.gov is the U.S. government's official web portal to all federal, state and local government web resources and services.